Time,TemperatureF,DewpointF,PressureIn,WindDirection,WindDirectionDegrees,WindSpeedMPH,WindSpeedGustMPH,Humidity,HourlyPrecipIn,Conditions,Clouds,dailyrainin,SoftwareType,DateUTC
2013-09-27 00:01:00,37.8,33.1,29.68,West,278,0.0,0.0,83,0.00,,SKC,0.00,VWS V14.01,2013-09-27 07:01:00,
2013-09-27 00:06:00,37.6,32.0,29.68,West,278,0.0,0.0,80,0.00,,SKC,0.00,VWS V14.01,2013-09-27 07:06:00,
2013-09-27 00:11:00,37.0,30.5,29.68,West,278,0.0,0.0,77,0.00,,SKC,0.00,VWS V14.01,2013-09-27 07:11:00,
2013-09-27 00:16:00,36.1,29.3,29.68,West,278,0.0,0.0,76,0.00,,SKC,0.00,VWS V14.01,2013-09-27 07:16:00,
2013-09-27 00:21:00,35.8,28.3,29.68,West,278,0.0,0.0,74,0.00,,SKC,0.00,VWS V14.01,2013-09-27 07:21:00,
2013-09-27 00:26:00,35.6,26.1,29.68,West,278,0.0,0.0,68,0.00,,SKC,0.00,VWS V14.01,2013-09-27 07:26:00,
2013-09-27 00:31:00,35.4,23.3,29.68,West,278,0.0,0.0,61,0.00,,SKC,0.00,VWS V14.01,2013-09-27 07:31:00,
2013-09-27 00:36:00,35.2,22.0,29.68,West,278,0.0,0.0,58,0.00,,SKC,0.00,VWS V14.01,2013-09-27 07:36:00,
2013-09-27 00:41:00,35.1,21.0,29.68,SE,137,0.0,0.0,56,0.00,,SKC,0.00,VWS V14.01,2013-09-27 07:41:00,
2013-09-27 00:46:00,35.1,19.7,29.68,SE,128,0.0,0.0,53,0.00,,SKC,0.00,VWS V14.01,2013-09-27 07:46:00,
2013-09-27 00:49:00,35.2,18.5,29.68,ESE,123,0.0,0.0,50,0.00,,SKC,0.00,VWS V14.01,2013-09-27 07:49:00,
2013-09-27 00:54:00,35.6,15.3,29.68,SE,140,3.1,4.9,43,0.00,,SKC,0.00,VWS V14.01,2013-09-27 07:54:00,
2013-09-27 00:59:00,35.8,14.9,29.68,SE,129,3.1,4.0,42,0.00,,SKC,0.00,VWS V14.01,2013-09-27 07:59:00,
2013-09-27 01:04:00,35.8,13.8,29.68,SE,134,2.7,3.1,40,0.00,,SKC,0.00,VWS V14.01,2013-09-27 08:04:00,
2013-09-27 01:09:00,35.8,13.8,29.68,SE,131,2.2,2.7,40,0.00,,SKC,0.00,VWS V14.01,2013-09-27 08:09:00,
2013-09-27 01:14:00,35.6,13.7,29.68,SE,130,0.0,2.2,40,0.00,,SKC,0.00,VWS V14.01,2013-09-27 08:14:00,
2013-09-27 01:19:00,35.4,14.1,29.68,ESE,122,0.0,0.0,41,0.00,,SKC,0.00,VWS V14.01,2013-09-27 08:19:00,
2013-09-27 01:24:00,35.4,13.5,29.68,ESE,118,0.0,2.7,40,0.00,,SKC,0.00,VWS V14.01,2013-09-27 08:24:00,
2013-09-27 01:29:00,35.4,13.5,29.68,ESE,120,3.1,4.0,40,0.00,,SKC,0.00,VWS V14.01,2013-09-27 08:29:00,
2013-09-27 01:34:00,35.4,13.5,29.68,ESE,119,2.7,5.4,40,0.00,,SKC,0.00,VWS V14.01,2013-09-27 08:34:00,
2013-09-27 01:39:00,35.8,13.8,29.68,ESE,115,3.1,3.1,40,0.00,,SKC,0.00,VWS V14.01,2013-09-27 08:39:00,
2013-09-27 01:44:00,36.0,13.4,29.68,ESE,122,3.1,3.1,39,0.00,,SKC,0.00,VWS V14.01,2013-09-27 08:44:00,
2013-09-27 01:49:00,35.6,13.7,29.68,ESE,118,4.9,4.9,40,0.00,,SKC,0.00,VWS V14.01,2013-09-27 08:49:00,
2013-09-27 01:54:00,36.0,13.4,29.68,SE,124,2.7,3.1,39,0.00,,SKC,0.00,VWS V14.01,2013-09-27 08:54:00,
2013-09-27 01:59:00,36.0,13.4,29.68,ESE,115,2.7,3.1,39,0.00,,SKC,0.00,VWS V14.01,2013-09-27 08:59:00,
2013-09-27 02:04:00,35.6,13.1,29.68,ESE,116,0.0,0.0,39,0.00,,SKC,0.00,VWS V14.01,2013-09-27 09:04:00,
2013-09-27 02:09:00,34.9,13.0,29.68,ESE,114,0.0,0.0,40,0.00,,SKC,0.00,VWS V14.01,2013-09-27 09:09:00,
2013-09-27 02:14:00,34.0,12.2,29.68,ESE,115,0.0,0.0,40,0.00,,SKC,0.00,VWS V14.01,2013-09-27 09:14:00,
2013-09-27 02:19:00,33.1,12.0,29.68,ESE,115,0.0,0.0,41,0.00,,SKC,0.00,VWS V14.01,2013-09-27 09:19:00,
2013-09-27 02:24:00,32.5,12.0,29.68,ESE,114,0.0,0.0,42,0.00,,SKC,0.00,VWS V14.01,2013-09-27 09:24:00,
2013-09-27 02:29:00,32.4,12.9,29.68,ESE,115,0.0,0.0,44,0.00,,SKC,0.00,VWS V14.01,2013-09-27 09:29:00,
2013-09-27 02:34:00,31.8,12.4,29.68,ESE,114,0.0,0.0,44,0.00,,SKC,0.00,VWS V14.01,2013-09-27 09:34:00,
2013-09-27 02:39:00,31.3,12.4,29.68,ESE,114,0.0,0.0,45,0.00,,SKC,0.00,VWS V14.01,2013-09-27 09:39:00,
2013-09-27 02:44:00,31.6,14.7,29.68,ESE,115,0.0,0.0,49,0.00,,SKC,0.00,VWS V14.01,2013-09-27 09:44:00,
2013-09-27 02:49:00,31.6,14.2,29.68,ESE,114,0.0,0.0,48,0.00,,SKC,0.00,VWS V14.01,2013-09-27 09:49:00,
2013-09-27 02:54:00,32.2,15.2,29.68,ESE,114,0.0,0.0,49,0.00,,SKC,0.00,VWS V14.01,2013-09-27 09:54:00,
2013-09-27 02:59:00,32.5,14.6,29.68,ESE,114,0.0,0.0,47,0.00,,SKC,0.00,VWS V14.01,2013-09-27 09:59:00,
2013-09-27 03:04:00,32.4,13.9,29.68,ESE,114,0.0,0.0,46,0.00,,SKC,0.00,VWS V14.01,2013-09-27 10:04:00,
2013-09-27 03:09:00,31.6,13.2,29.68,ESE,114,0.0,0.0,46,0.00,,SKC,0.00,VWS V14.01,2013-09-27 10:09:00,
2013-09-27 03:14:00,30.9,12.6,29.68,ESE,114,0.0,0.0,46,0.00,,SKC,0.00,VWS V14.01,2013-09-27 10:14:00,
2013-09-27 03:19:00,30.4,13.1,29.68,ESE,114,0.0,0.0,48,0.00,,SKC,0.00,VWS V14.01,2013-09-27 10:19:00,
2013-09-27 03:24:00,30.0,12.7,29.68,ESE,114,0.0,0.0,48,0.00,,SKC,0.00,VWS V14.01,2013-09-27 10:24:00,
2013-09-27 03:29:00,29.7,13.3,29.68,ESE,114,0.0,0.0,50,0.00,,SKC,0.00,VWS V14.01,2013-09-27 10:29:00,
2013-09-27 03:34:00,29.7,13.8,29.68,ESE,114,0.0,0.0,51,0.00,,SKC,0.00,VWS V14.01,2013-09-27 10:34:00,
2013-09-27 03:39:00,29.8,13.9,29.68,ESE,114,0.0,0.0,51,0.00,,SKC,0.00,VWS V14.01,2013-09-27 10:39:00,
2013-09-27 03:44:00,29.8,14.4,29.68,ESE,114,0.0,0.0,52,0.00,,SKC,0.00,VWS V14.01,2013-09-27 10:44:00,
2013-09-27 03:49:00,30.2,15.6,29.68,ESE,114,0.0,0.0,54,0.00,,SKC,0.00,VWS V14.01,2013-09-27 10:49:00,
2013-09-27 03:54:00,30.6,15.5,29.68,ESE,114,0.0,0.0,53,0.00,,SKC,0.00,VWS V14.01,2013-09-27 10:54:00,
2013-09-27 03:59:00,30.2,15.1,29.68,ESE,114,0.0,0.0,53,0.00,,SKC,0.00,VWS V14.01,2013-09-27 10:59:00,
2013-09-27 04:04:00,30.2,15.1,29.68,ESE,114,0.0,0.0,53,0.00,,SKC,0.00,VWS V14.01,2013-09-27 11:04:00,
2013-09-27 04:09:00,29.7,14.2,29.68,ESE,114,0.0,0.0,52,0.00,,SKC,0.00,VWS V14.01,2013-09-27 11:09:00,
2013-09-27 04:14:00,29.1,13.7,29.68,ESE,114,0.0,0.0,52,0.00,,SKC,0.00,VWS V14.01,2013-09-27 11:14:00,
2013-09-27 04:19:00,28.6,13.6,29.68,ESE,114,0.0,0.0,53,0.00,,SKC,0.00,VWS V14.01,2013-09-27 11:19:00,
2013-09-27 04:24:00,28.6,14.1,29.68,ESE,114,0.0,0.0,54,0.00,,SKC,0.00,VWS V14.01,2013-09-27 11:24:00,
2013-09-27 04:29:00,28.4,14.3,29.68,ESE,114,0.0,0.0,55,0.00,,SKC,0.00,VWS V14.01,2013-09-27 11:29:00,
2013-09-27 04:34:00,28.0,14.0,29.68,ESE,114,0.0,0.0,55,0.00,,SKC,0.00,VWS V14.01,2013-09-27 11:34:00,
2013-09-27 04:39:00,27.9,14.2,29.68,ESE,114,0.0,0.0,56,0.00,,SKC,0.00,VWS V14.01,2013-09-27 11:39:00,
2013-09-27 04:44:00,28.0,14.8,29.68,ESE,114,0.0,0.0,57,0.00,,SKC,0.00,VWS V14.01,2013-09-27 11:44:00,
2013-09-27 04:49:00,28.0,15.2,29.68,ESE,114,0.0,0.0,58,0.00,,SKC,0.00,VWS V14.01,2013-09-27 11:49:00,
2013-09-27 04:54:00,28.0,15.2,29.68,ESE,114,0.0,0.0,58,0.00,,SKC,0.00,VWS V14.01,2013-09-27 11:54:00,
2013-09-27 04:59:00,28.2,16.1,29.68,ESE,114,0.0,0.0,60,0.00,,SKC,0.00,VWS V14.01,2013-09-27 11:59:00,
2013-09-27 05:04:00,28.6,16.9,29.68,ESE,114,0.0,0.0,61,0.00,,SKC,0.00,VWS V14.01,2013-09-27 12:04:00,
2013-09-27 05:09:00,29.5,17.7,29.68,ESE,114,0.0,0.0,61,0.00,,SKC,0.00,VWS V14.01,2013-09-27 12:09:00,
2013-09-27 05:14:00,29.7,17.1,29.68,ESE,114,0.0,0.0,59,0.00,,SKC,0.00,VWS V14.01,2013-09-27 12:14:00,
2013-09-27 05:19:00,29.5,16.1,29.68,ESE,114,0.0,0.0,57,0.00,,SKC,0.00,VWS V14.01,2013-09-27 12:19:00,
2013-09-27 05:24:00,29.1,15.4,29.68,ESE,114,0.0,0.0,56,0.00,,SKC,0.00,VWS V14.01,2013-09-27 12:24:00,
2013-09-27 05:29:00,28.6,14.9,29.68,ESE,114,0.0,0.0,56,0.00,,SKC,0.00,VWS V14.01,2013-09-27 12:29:00,
2013-09-27 05:34:00,29.5,20.2,29.68,ESE,114,0.0,0.0,68,0.00,,SKC,0.00,VWS V14.01,2013-09-27 12:34:00,
2013-09-27 05:39:00,30.4,22.8,29.68,ESE,114,0.0,0.0,73,0.00,,SKC,0.00,VWS V14.01,2013-09-27 12:39:00,
2013-09-27 05:44:00,30.9,23.6,29.68,ESE,114,0.0,0.0,74,0.00,,SKC,0.00,VWS V14.01,2013-09-27 12:44:00,
2013-09-27 05:49:00,30.9,23.9,29.68,ESE,114,0.0,0.0,75,0.00,,SKC,0.00,VWS V14.01,2013-09-27 12:49:00,
2013-09-27 05:54:00,31.1,25.0,29.68,ESE,114,0.0,0.0,78,0.00,,SKC,0.00,VWS V14.01,2013-09-27 12:54:00,
2013-09-27 05:59:00,31.1,25.4,29.71,ESE,114,0.0,0.0,79,0.00,,SKC,0.00,VWS V14.01,2013-09-27 12:59:00,
2013-09-27 06:04:00,31.1,25.7,29.71,SE,136,3.1,4.0,80,0.00,,SKC,0.00,VWS V14.01,2013-09-27 13:04:00,
2013-09-27 06:09:00,31.1,26.3,29.71,SE,127,0.0,0.0,82,0.00,,SKC,0.00,VWS V14.01,2013-09-27 13:09:00,
2013-09-27 06:14:00,31.1,26.5,29.71,SE,127,0.0,0.0,83,0.00,,SKC,0.00,VWS V14.01,2013-09-27 13:14:00,
2013-09-27 06:19:00,30.7,26.2,29.71,SE,127,0.0,0.0,83,0.00,,SKC,0.00,VWS V14.01,2013-09-27 13:19:00,
2013-09-27 06:24:00,30.4,25.9,29.71,SE,127,0.0,0.0,83,0.00,,SKC,0.00,VWS V14.01,2013-09-27 13:24:00,
2013-09-27 06:29:00,30.0,25.5,29.71,SE,127,0.0,0.0,83,0.00,,SKC,0.00,VWS V14.01,2013-09-27 13:29:00,
2013-09-27 06:34:00,29.5,25.0,29.71,SE,127,0.0,0.0,83,0.00,,SKC,0.00,VWS V14.01,2013-09-27 13:34:00,
2013-09-27 06:39:00,28.9,24.4,29.71,SE,127,0.0,0.0,83,0.00,,SKC,0.00,VWS V14.01,2013-09-27 13:39:00,
2013-09-27 06:44:00,28.6,24.1,29.71,SE,127,0.0,0.0,83,0.00,,SKC,0.00,VWS V14.01,2013-09-27 13:44:00,
2013-09-27 06:49:00,28.6,24.4,29.71,SE,127,0.0,0.0,84,0.00,,SKC,0.00,VWS V14.01,2013-09-27 13:49:00,
2013-09-27 06:54:00,28.4,24.2,29.71,SE,127,0.0,0.0,84,0.00,,SKC,0.00,VWS V14.01,2013-09-27 13:54:00,
2013-09-27 06:59:00,27.9,23.7,29.71,SE,127,0.0,0.0,84,0.00,,SKC,0.00,VWS V14.01,2013-09-27 13:59:00,
2013-09-27 07:04:00,27.5,23.3,29.71,SE,127,0.0,0.0,84,0.00,,SKC,0.00,VWS V14.01,2013-09-27 14:04:00,
2013-09-27 07:09:00,27.3,23.1,29.71,SE,127,0.0,0.0,84,0.00,,SKC,0.00,VWS V14.01,2013-09-27 14:09:00,
2013-09-27 07:14:00,27.0,22.8,29.71,SE,127,0.0,0.0,84,0.00,,SKC,0.00,VWS V14.01,2013-09-27 14:14:00,
2013-09-27 07:19:00,27.7,24.0,29.71,ESE,123,0.0,0.0,86,0.00,,SKC,0.00,VWS V14.01,2013-09-27 14:19:00,
2013-09-27 07:24:00,28.4,25.0,29.71,SE,130,3.6,4.0,87,0.00,,SKC,0.00,VWS V14.01,2013-09-27 14:24:00,
2013-09-27 07:29:00,29.1,25.7,29.71,SE,128,2.2,2.2,87,0.00,,SKC,0.00,VWS V14.01,2013-09-27 14:29:00,
2013-09-27 07:34:00,29.5,26.4,29.71,SE,127,2.7,2.7,88,0.00,,SKC,0.00,VWS V14.01,2013-09-27 14:34:00,
2013-09-27 07:39:00,30.0,26.9,29.71,SE,131,2.7,3.6,88,0.00,,SKC,0.00,VWS V14.01,2013-09-27 14:39:00,
2013-09-27 07:44:00,30.6,27.4,29.71,SE,127,0.0,0.0,88,0.00,,SKC,0.00,VWS V14.01,2013-09-27 14:44:00,
2013-09-27 07:49:00,31.5,28.3,29.71,SE,130,0.0,0.0,88,0.00,,SKC,0.00,VWS V14.01,2013-09-27 14:49:00,
2013-09-27 07:54:00,32.2,29.0,29.71,ESE,120,4.0,4.0,88,0.00,,SKC,0.00,VWS V14.01,2013-09-27 14:54:00,
2013-09-27 07:59:00,32.7,29.3,29.71,SE,129,0.0,0.0,87,0.00,,SKC,0.00,VWS V14.01,2013-09-27 14:59:00,
2013-09-27 08:04:00,33.6,29.6,29.71,SE,129,0.0,0.0,85,0.00,,SKC,0.00,VWS V14.01,2013-09-27 15:04:00,
2013-09-27 08:09:00,34.3,30.0,29.71,SE,129,0.0,0.0,84,0.00,,SKC,0.00,VWS V14.01,2013-09-27 15:09:00,
2013-09-27 08:14:00,35.4,31.1,29.71,SE,129,0.0,0.0,84,0.00,,SKC,0.00,VWS V14.01,2013-09-27 15:14:00,
2013-09-27 08:19:00,36.3,31.4,29.71,WSW,257,0.0,0.0,82,0.00,,SKC,0.00,VWS V14.01,2013-09-27 15:19:00,
2013-09-27 08:24:00,37.6,32.3,29.74,WSW,257,0.0,0.0,81,0.04,,SKC,0.04,VWS V14.01,2013-09-27 15:24:00,
2013-09-27 08:29:00,38.8,32.9,29.74,WSW,257,0.0,0.0,79,0.04,,SKC,0.04,VWS V14.01,2013-09-27 15:29:00,
2013-09-27 08:34:00,39.4,21.8,29.74,WSW,257,0.0,0.0,49,0.04,,SKC,0.04,VWS V14.01,2013-09-27 15:34:00,
2013-09-27 08:39:00,40.3,18.5,29.74,WSW,257,0.0,0.0,41,0.04,,SKC,0.04,VWS V14.01,2013-09-27 15:39:00,
2013-09-27 08:44:00,41.7,21.4,29.74,WSW,257,0.0,0.0,44,0.04,,SKC,0.04,VWS V14.01,2013-09-27 15:44:00,
2013-09-27 08:49:00,42.6,19.4,29.74,WSW,257,0.0,0.0,39,0.04,,SKC,0.04,VWS V14.01,2013-09-27 15:49:00,
2013-09-27 08:54:00,44.2,17.0,29.74,WSW,257,0.0,0.0,33,0.04,,SKC,0.04,VWS V14.01,2013-09-27 15:54:00,
2013-09-27 08:59:00,44.8,16.7,29.74,WSW,257,0.0,0.0,32,0.04,,SKC,0.04,VWS V14.01,2013-09-27 15:59:00,
2013-09-27 09:04:00,45.0,16.2,29.74,West,276,0.0,0.0,31,0.04,,SKC,0.04,VWS V14.01,2013-09-27 16:04:00,
2013-09-27 09:09:00,45.7,16.8,29.74,WNW,284,2.7,3.1,31,0.04,,SKC,0.04,VWS V14.01,2013-09-27 16:09:00,
2013-09-27 09:14:00,45.0,14.6,29.74,WNW,284,0.0,0.0,29,0.04,,SKC,0.04,VWS V14.01,2013-09-27 16:14:00,
2013-09-27 09:19:00,44.8,15.3,29.74,WNW,284,0.0,0.0,30,0.04,,SKC,0.04,VWS V14.01,2013-09-27 16:19:00,
2013-09-27 09:24:00,46.2,17.3,29.74,WNW,284,0.0,0.0,31,0.04,,SKC,0.04,VWS V14.01,2013-09-27 16:24:00,
2013-09-27 09:29:00,46.9,15.6,29.74,WNW,283,0.0,0.0,28,0.00,,SKC,0.04,VWS V14.01,2013-09-27 16:29:00,
2013-09-27 09:34:00,47.7,17.0,29.74,NNW,331,0.0,0.0,29,0.00,,SKC,0.04,VWS V14.01,2013-09-27 16:34:00,
2013-09-27 09:39:00,48.2,16.6,29.74,NW,317,0.0,0.0,28,0.00,,SKC,0.04,VWS V14.01,2013-09-27 16:39:00,
2013-09-27 09:44:00,48.2,15.8,29.74,West,281,3.1,4.9,27,0.00,,SKC,0.04,VWS V14.01,2013-09-27 16:44:00,
2013-09-27 09:49:00,48.6,16.1,29.74,WNW,292,0.0,0.0,27,0.00,,SKC,0.04,VWS V14.01,2013-09-27 16:49:00,
2013-09-27 09:54:00,48.9,16.4,29.74,NNW,344,2.2,2.2,27,0.00,,SKC,0.04,VWS V14.01,2013-09-27 16:54:00,
2013-09-27 09:59:00,49.3,16.7,29.74,NNW,330,0.0,0.0,27,0.00,,SKC,0.04,VWS V14.01,2013-09-27 16:59:00,
2013-09-27 10:04:00,50.0,17.4,29.74,NNW,341,2.7,2.7,27,0.00,,SKC,0.04,VWS V14.01,2013-09-27 17:04:00,
2013-09-27 10:09:00,50.4,17.7,29.74,WNW,291,5.4,5.4,27,0.00,,SKC,0.04,VWS V14.01,2013-09-27 17:09:00,
2013-09-27 10:14:00,50.7,17.1,29.74,WNW,295,6.3,6.3,26,0.00,,SKC,0.04,VWS V14.01,2013-09-27 17:14:00,
2013-09-27 10:19:00,50.9,18.1,29.74,WNW,289,4.0,4.9,27,0.00,,SKC,0.04,VWS V14.01,2013-09-27 17:19:00,
2013-09-27 10:24:00,51.1,17.4,29.74,WNW,286,0.0,4.0,26,0.00,,SKC,0.04,VWS V14.01,2013-09-27 17:24:00,
2013-09-27 10:26:00,50.9,17.2,29.74,WNW,297,6.3,6.3,26,0.00,,SKC,0.04,VWS V14.01,2013-09-27 17:26:00,
2013-09-27 10:31:00,50.9,18.1,29.74,WNW,291,0.0,0.0,27,0.00,,SKC,0.04,VWS V14.01,2013-09-27 17:31:00,
2013-09-27 10:36:00,51.6,17.9,29.74,NW,311,0.0,0.0,26,0.00,,SKC,0.04,VWS V14.01,2013-09-27 17:36:00,
2013-09-27 10:41:00,52.2,18.3,29.74,West,278,2.2,2.2,26,0.00,,SKC,0.04,VWS V14.01,2013-09-27 17:41:00,
2013-09-27 10:46:00,52.7,18.8,29.74,NNW,336,0.0,0.0,26,0.00,,SKC,0.04,VWS V14.01,2013-09-27 17:46:00,
2013-09-27 10:51:00,53.1,19.1,29.74,WNW,298,4.5,4.5,26,0.00,,SKC,0.04,VWS V14.01,2013-09-27 17:51:00,
2013-09-27 10:56:00,53.1,19.1,29.74,WNW,294,0.0,2.7,26,0.00,,SKC,0.04,VWS V14.01,2013-09-27 17:56:00,
2013-09-27 11:01:00,52.9,19.0,29.74,West,273,5.4,5.4,26,0.00,,SKC,0.04,VWS V14.01,2013-09-27 18:01:00,
2013-09-27 11:06:00,53.4,19.4,29.74,NNW,329,3.1,6.3,26,0.00,,SKC,0.04,VWS V14.01,2013-09-27 18:06:00,
2013-09-27 11:11:00,54.0,19.0,29.74,WNW,289,0.0,3.6,25,0.00,,SKC,0.04,VWS V14.01,2013-09-27 18:11:00,
2013-09-27 11:16:00,54.7,19.6,29.74,WNW,293,3.6,5.4,25,0.00,,SKC,0.04,VWS V14.01,2013-09-27 18:16:00,
2013-09-27 11:21:00,55.0,19.9,29.74,NW,305,4.0,6.3,25,0.00,,SKC,0.04,VWS V14.01,2013-09-27 18:21:00,
2013-09-27 11:26:00,54.3,17.3,29.74,ESE,110,2.7,3.1,23,0.00,,SKC,0.04,VWS V14.01,2013-09-27 18:26:00,
2013-09-27 11:31:00,54.7,17.6,29.74,WNW,296,5.4,5.4,23,0.00,,SKC,0.04,VWS V14.01,2013-09-27 18:31:00,
2013-09-27 11:36:00,55.6,17.4,29.74,WNW,300,3.1,6.3,22,0.00,,SKC,0.04,VWS V14.01,2013-09-27 18:36:00,
2013-09-27 11:41:00,55.4,17.2,29.74,NNW,343,4.0,5.8,22,0.00,,SKC,0.04,VWS V14.01,2013-09-27 18:41:00,
2013-09-27 11:46:00,55.9,17.7,29.74,NNW,332,0.0,0.0,22,0.00,,SKC,0.04,VWS V14.01,2013-09-27 18:46:00,
2013-09-27 11:51:00,56.1,17.8,29.74,SW,216,0.0,0.0,22,0.00,,SKC,0.04,VWS V14.01,2013-09-27 18:51:00,
2013-09-27 11:56:00,56.5,18.1,29.74,WNW,293,3.1,5.8,22,0.00,,SKC,0.04,VWS V14.01,2013-09-27 18:56:00,
2013-09-27 12:01:00,57.0,18.6,29.74,WNW,283,2.7,7.6,22,0.00,,SKC,0.04,VWS V14.01,2013-09-27 19:01:00,
2013-09-27 12:06:00,57.4,18.9,29.74,WNW,283,5.8,5.8,22,0.00,,SKC,0.04,VWS V14.01,2013-09-27 19:06:00,
2013-09-27 12:11:00,57.9,19.3,29.74,NNW,339,7.6,8.3,22,0.00,,SKC,0.04,VWS V14.01,2013-09-27 19:11:00,
2013-09-27 12:16:00,57.7,15.8,29.74,West,281,2.7,3.1,19,0.00,,SKC,0.04,VWS V14.01,2013-09-27 19:16:00,
2013-09-27 12:21:00,58.1,16.1,29.74,WSW,257,3.1,4.0,19,0.00,,SKC,0.04,VWS V14.01,2013-09-27 19:21:00,
2013-09-27 12:26:00,58.6,19.9,29.77,WNW,282,4.0,4.0,22,0.00,,SKC,0.04,VWS V14.01,2013-09-27 19:26:00,
2013-09-27 12:31:00,59.5,17.3,29.77,WSW,249,3.1,4.0,19,0.00,,SKC,0.04,VWS V14.01,2013-09-27 19:31:00,
2013-09-27 12:36:00,59.7,17.4,29.77,WNW,286,0.0,4.0,19,0.00,,SKC,0.04,VWS V14.01,2013-09-27 19:36:00,
2013-09-27 12:41:00,59.9,17.6,29.74,WNW,303,8.1,8.1,19,0.00,,SKC,0.04,VWS V14.01,2013-09-27 19:41:00,
2013-09-27 12:46:00,59.9,17.6,29.74,WNW,292,0.0,0.0,19,0.00,,SKC,0.04,VWS V14.01,2013-09-27 19:46:00,
2013-09-27 12:51:00,60.4,18.0,29.74,WNW,285,4.9,5.8,19,0.00,,SKC,0.04,VWS V14.01,2013-09-27 19:51:00,
2013-09-27 12:56:00,60.1,17.7,29.74,NW,307,0.0,0.0,19,0.00,,SKC,0.04,VWS V14.01,2013-09-27 19:56:00,
2013-09-27 13:01:00,61.0,18.5,29.74,West,281,0.0,4.9,19,0.00,,SKC,0.04,VWS V14.01,2013-09-27 20:01:00,
2013-09-27 13:06:00,61.2,18.6,29.74,WNW,292,2.2,7.6,19,0.00,,SKC,0.04,VWS V14.01,2013-09-27 20:06:00,
2013-09-27 13:11:00,60.8,18.3,29.74,SSW,200,0.0,0.0,19,0.00,,SKC,0.04,VWS V14.01,2013-09-27 20:11:00,
2013-09-27 13:16:00,61.9,19.2,29.74,SW,227,3.1,5.4,19,0.00,,SKC,0.04,VWS V14.01,2013-09-27 20:16:00,
2013-09-27 13:21:00,61.9,19.2,29.74,NNW,338,3.1,4.0,19,0.00,,SKC,0.04,VWS V14.01,2013-09-27 20:21:00,
2013-09-27 13:26:00,61.9,19.2,29.77,NNW,334,5.4,5.4,19,0.00,,SKC,0.04,VWS V14.01,2013-09-27 20:26:00,
2013-09-27 13:31:00,62.8,18.7,29.77,NNW,339,4.9,6.3,18,0.00,,SKC,0.04,VWS V14.01,2013-09-27 20:31:00,
2013-09-27 13:36:00,63.1,19.0,29.77,NNW,335,0.0,0.0,18,0.00,,SKC,0.04,VWS V14.01,2013-09-27 20:36:00,
2013-09-27 13:41:00,62.6,18.5,29.74,NNW,335,3.1,5.8,18,0.00,,SKC,0.04,VWS V14.01,2013-09-27 20:41:00,
2013-09-27 13:46:00,62.4,19.6,29.74,NW,322,0.0,0.0,19,0.00,,SKC,0.04,VWS V14.01,2013-09-27 20:46:00,
2013-09-27 13:51:00,62.8,18.7,29.74,NW,304,5.8,8.1,18,0.00,,SKC,0.04,VWS V14.01,2013-09-27 20:51:00,
2013-09-27 13:56:00,63.0,18.8,29.74,NW,310,4.0,4.5,18,0.00,,SKC,0.04,VWS V14.01,2013-09-27 20:56:00,
2013-09-27 14:01:00,62.2,19.5,29.74,West,281,3.6,5.8,19,0.00,,SKC,0.04,VWS V14.01,2013-09-27 21:01:00,
2013-09-27 14:06:00,63.0,18.8,29.74,WNW,299,3.6,4.9,18,0.00,,SKC,0.04,VWS V14.01,2013-09-27 21:06:00,
2013-09-27 14:11:00,63.1,19.0,29.74,South,174,0.0,0.0,18,0.00,,SKC,0.04,VWS V14.01,2013-09-27 21:11:00,
2013-09-27 14:16:00,63.1,19.0,29.74,NW,307,3.6,4.0,18,0.00,,SKC,0.04,VWS V14.01,2013-09-27 21:16:00,
2013-09-27 14:21:00,63.9,19.6,29.74,WSW,250,0.0,4.0,18,0.00,,SKC,0.04,VWS V14.01,2013-09-27 21:21:00,
2013-09-27 14:26:00,63.9,19.6,29.74,West,260,2.7,2.7,18,0.00,,SKC,0.04,VWS V14.01,2013-09-27 21:26:00,
2013-09-27 14:31:00,64.0,19.7,29.74,NW,307,5.4,5.8,18,0.00,,SKC,0.04,VWS V14.01,2013-09-27 21:31:00,
2013-09-27 14:36:00,64.2,19.9,29.74,NNW,340,6.3,8.3,18,0.00,,SKC,0.04,VWS V14.01,2013-09-27 21:36:00,
2013-09-27 14:41:00,64.2,19.9,29.74,North,4,3.6,4.0,18,0.00,,SKC,0.04,VWS V14.01,2013-09-27 21:41:00,
2013-09-27 14:46:00,64.2,19.9,29.74,NW,311,4.0,4.0,18,0.00,,SKC,0.04,VWS V14.01,2013-09-27 21:46:00,
2013-09-27 14:51:00,64.2,19.9,29.74,NNW,335,5.4,5.4,18,0.00,,SKC,0.04,VWS V14.01,2013-09-27 21:51:00,
2013-09-27 14:56:00,65.1,20.6,29.74,WNW,298,2.7,3.6,18,0.00,,SKC,0.04,VWS V14.01,2013-09-27 21:56:00,
2013-09-27 15:01:00,64.8,20.3,29.74,WNW,288,6.3,6.3,18,0.00,,SKC,0.04,VWS V14.01,2013-09-27 22:01:00,
2013-09-27 15:06:00,64.9,20.4,29.74,WNW,283,0.0,0.0,18,0.00,,SKC,0.04,VWS V14.01,2013-09-27 22:06:00,
2013-09-27 15:11:00,65.1,20.6,29.74,NW,312,5.8,5.8,18,0.00,,SKC,0.04,VWS V14.01,2013-09-27 22:11:00,
2013-09-27 15:16:00,64.6,20.1,29.74,NW,310,3.6,5.8,18,0.00,,SKC,0.04,VWS V14.01,2013-09-27 22:16:00,
2013-09-27 15:21:00,64.8,20.3,29.74,NW,319,3.6,8.1,18,0.00,,SKC,0.04,VWS V14.01,2013-09-27 22:21:00,
2013-09-27 15:26:00,64.9,20.4,29.74,NNW,345,6.7,6.7,18,0.00,,SKC,0.04,VWS V14.01,2013-09-27 22:26:00,
2013-09-27 15:31:00,65.1,20.6,29.74,NW,317,0.0,0.0,18,0.00,,SKC,0.04,VWS V14.01,2013-09-27 22:31:00,
2013-09-27 15:36:00,65.5,20.9,29.74,WNW,299,0.0,2.2,18,0.00,,SKC,0.04,VWS V14.01,2013-09-27 22:36:00,
2013-09-27 15:41:00,65.7,21.0,29.74,West,280,2.7,7.6,18,0.00,,SKC,0.04,VWS V14.01,2013-09-27 22:41:00,
2013-09-27 15:46:00,66.0,21.3,29.74,WNW,300,5.4,5.4,18,0.00,,SKC,0.04,VWS V14.01,2013-09-27 22:46:00,
2013-09-27 15:51:00,66.0,21.3,29.74,NNW,330,0.0,3.1,18,0.00,,SKC,0.04,VWS V14.01,2013-09-27 22:51:00,
2013-09-27 15:56:00,66.0,21.3,29.74,WNW,284,5.4,5.4,18,0.00,,SKC,0.04,VWS V14.01,2013-09-27 22:56:00,
2013-09-27 16:01:00,66.0,21.3,29.74,NW,314,10.1,10.1,18,0.00,,SKC,0.04,VWS V14.01,2013-09-27 23:01:00,
2013-09-27 16:06:00,65.7,21.0,29.74,West,274,2.7,3.1,18,0.00,,SKC,0.04,VWS V14.01,2013-09-27 23:06:00,
2013-09-27 16:11:00,65.8,21.2,29.74,NNW,346,2.2,4.0,18,0.00,,SKC,0.04,VWS V14.01,2013-09-27 23:11:00,
2013-09-27 16:16:00,65.5,20.9,29.74,NNW,334,2.7,2.7,18,0.00,,SKC,0.04,VWS V14.01,2013-09-27 23:16:00,
2013-09-27 16:21:00,65.8,21.2,29.74,NNW,344,7.2,7.2,18,0.00,,SKC,0.04,VWS V14.01,2013-09-27 23:21:00,
2013-09-27 16:26:00,65.5,20.9,29.74,NW,325,0.0,0.0,18,0.00,,SKC,0.04,VWS V14.01,2013-09-27 23:26:00,
2013-09-27 16:31:00,65.8,21.2,29.74,West,280,0.0,0.0,18,0.00,,SKC,0.04,VWS V14.01,2013-09-27 23:31:00,
2013-09-27 16:36:00,66.0,21.3,29.74,NNW,340,4.0,5.4,18,0.00,,SKC,0.04,VWS V14.01,2013-09-27 23:36:00,
2013-09-27 16:41:00,66.4,20.3,29.74,WNW,297,7.6,7.6,17,0.00,,SKC,0.04,VWS V14.01,2013-09-27 23:41:00,
2013-09-27 16:46:00,66.2,20.1,29.74,NNW,344,2.7,4.0,17,0.00,,SKC,0.04,VWS V14.01,2013-09-27 23:46:00,
2013-09-27 16:51:00,66.2,20.1,29.74,WNW,299,5.4,5.4,17,0.00,,SKC,0.04,VWS V14.01,2013-09-27 23:51:00,
2013-09-27 16:56:00,65.8,21.2,29.74,WNW,290,5.4,5.4,18,0.00,,SKC,0.04,VWS V14.01,2013-09-27 23:56:00,
2013-09-27 17:01:00,65.5,20.9,29.74,NNW,338,3.6,4.5,18,0.00,,SKC,0.04,VWS V14.01,2013-09-28 00:01:00,
2013-09-27 17:06:00,65.3,20.7,29.74,NW,318,8.1,8.3,18,0.00,,SKC,0.04,VWS V14.01,2013-09-28 00:06:00,
2013-09-27 17:11:00,64.8,20.3,29.74,WSW,258,5.8,5.8,18,0.00,,SKC,0.04,VWS V14.01,2013-09-28 00:11:00,
2013-09-27 17:16:00,64.2,19.9,29.74,WNW,291,2.7,2.7,18,0.00,,SKC,0.04,VWS V14.01,2013-09-28 00:16:00,
2013-09-27 17:21:00,63.5,19.3,29.74,West,273,3.6,6.3,18,0.00,,SKC,0.04,VWS V14.01,2013-09-28 00:21:00,
2013-09-27 17:26:00,63.5,19.3,29.74,NW,316,2.2,3.1,18,0.00,,SKC,0.04,VWS V14.01,2013-09-28 00:26:00,
2013-09-27 17:31:00,63.1,19.0,29.74,WNW,299,0.0,0.0,18,0.00,,SKC,0.04,VWS V14.01,2013-09-28 00:31:00,
2013-09-27 17:36:00,62.2,19.5,29.74,WNW,291,5.8,6.3,19,0.00,,SKC,0.04,VWS V14.01,2013-09-28 00:36:00,
2013-09-27 17:41:00,61.5,18.9,29.74,West,270,3.1,3.1,19,0.00,,SKC,0.04,VWS V14.01,2013-09-28 00:41:00,
2013-09-27 17:46:00,60.8,18.3,29.74,WNW,282,3.1,3.6,19,0.00,,SKC,0.04,VWS V14.01,2013-09-28 00:46:00,
2013-09-27 17:51:00,60.1,17.7,29.74,West,279,3.1,3.1,19,0.00,,SKC,0.04,VWS V14.01,2013-09-28 00:51:00,
2013-09-27 17:56:00,59.4,17.1,29.74,West,277,0.0,0.0,19,0.00,,SKC,0.04,VWS V14.01,2013-09-28 00:56:00,
2013-09-27 18:01:00,58.8,16.7,29.74,West,272,0.0,0.0,19,0.00,,SKC,0.04,VWS V14.01,2013-09-28 01:01:00,
2013-09-27 18:06:00,58.3,16.2,29.74,West,272,0.0,0.0,19,0.00,,SKC,0.04,VWS V14.01,2013-09-28 01:06:00,
2013-09-27 18:11:00,57.6,15.6,29.83,West,272,0.0,0.0,19,0.00,,SKC,0.04,VWS V14.01,2013-09-28 01:11:00,
2013-09-27 18:16:00,56.5,15.9,29.83,SW,221,3.1,3.6,20,0.00,,SKC,0.04,VWS V14.01,2013-09-28 01:16:00,
2013-09-27 18:21:00,55.4,15.0,29.83,SSW,201,2.2,2.2,20,0.00,,SKC,0.04,VWS V14.01,2013-09-28 01:21:00,
2013-09-27 18:26:00,54.1,14.0,29.74,SSW,201,0.0,2.7,20,0.00,,SKC,0.04,VWS V14.01,2013-09-28 01:26:00,
2013-09-27 18:31:00,53.1,14.2,29.74,SSW,201,0.0,0.0,21,0.00,,SKC,0.04,VWS V14.01,2013-09-28 01:31:00,
2013-09-27 18:36:00,52.5,13.7,29.74,SSW,201,0.0,0.0,21,0.00,,SKC,0.04,VWS V14.01,2013-09-28 01:36:00,
2013-09-27 18:41:00,51.6,13.0,29.74,SSW,201,0.0,0.0,21,0.00,,SKC,0.04,VWS V14.01,2013-09-28 01:41:00,
2013-09-27 18:46:00,50.7,12.2,29.74,SSW,201,0.0,0.0,21,0.00,,SKC,0.04,VWS V14.01,2013-09-28 01:46:00,
2013-09-27 18:51:00,50.4,11.9,29.74,SSW,201,0.0,0.0,21,0.00,,SKC,0.04,VWS V14.01,2013-09-28 01:51:00,
2013-09-27 18:56:00,50.0,11.6,29.77,SSW,201,0.0,0.0,21,0.00,,SKC,0.04,VWS V14.01,2013-09-28 01:56:00,
2013-09-27 19:01:00,49.3,11.0,29.77,SSW,201,0.0,0.0,21,0.00,,SKC,0.04,VWS V14.01,2013-09-28 02:01:00,
2013-09-27 19:06:00,48.6,10.4,29.77,SSW,201,0.0,0.0,21,0.00,,SKC,0.04,VWS V14.01,2013-09-28 02:06:00,
2013-09-27 19:11:00,48.4,13.3,29.77,SSW,201,0.0,0.0,24,0.00,,SKC,0.04,VWS V14.01,2013-09-28 02:11:00,
2013-09-27 19:16:00,48.2,13.1,29.77,SSW,201,0.0,0.0,24,0.00,,SKC,0.04,VWS V14.01,2013-09-28 02:16:00,
2013-09-27 19:21:00,48.7,15.4,29.77,SSW,201,0.0,0.0,26,0.00,,SKC,0.04,VWS V14.01,2013-09-28 02:21:00,
2013-09-27 19:26:00,48.7,15.4,29.77,SSW,201,0.0,0.0,26,0.00,,SKC,0.04,VWS V14.01,2013-09-28 02:26:00,
2013-09-27 19:30:00,48.2,14.9,29.77,SSW,201,0.0,0.0,26,0.00,,SKC,0.04,VWS V14.01,2013-09-28 02:30:00,
2013-09-27 19:35:00,48.4,15.1,29.77,SSW,201,0.0,0.0,26,0.00,,SKC,0.04,VWS V14.01,2013-09-28 02:35:00,
2013-09-27 19:40:00,47.8,15.5,29.77,SSW,201,0.0,0.0,27,0.00,,SKC,0.04,VWS V14.01,2013-09-28 02:40:00,
2013-09-27 19:45:00,47.1,14.9,29.77,SSW,201,0.0,0.0,27,0.00,,SKC,0.04,VWS V14.01,2013-09-28 02:45:00,
2013-09-27 19:50:00,47.1,14.9,29.77,SSW,201,0.0,0.0,27,0.00,,SKC,0.04,VWS V14.01,2013-09-28 02:50:00,
2013-09-27 19:55:00,47.1,14.9,29.77,SSW,201,0.0,0.0,27,0.00,,SKC,0.04,VWS V14.01,2013-09-28 02:55:00,
2013-09-27 20:00:00,47.3,15.0,29.77,SSW,201,0.0,0.0,27,0.00,,SKC,0.04,VWS V14.01,2013-09-28 03:00:00,
2013-09-27 20:05:00,47.1,14.9,29.77,SSW,201,0.0,0.0,27,0.00,,SKC,0.04,VWS V14.01,2013-09-28 03:05:00,
2013-09-27 20:10:00,46.8,14.6,29.77,SSW,201,0.0,0.0,27,0.00,,SKC,0.04,VWS V14.01,2013-09-28 03:10:00,
2013-09-27 20:16:00,46.2,14.9,29.77,SSW,201,0.0,0.0,28,0.00,,SKC,0.04,VWS V14.01,2013-09-28 03:16:00,
2013-09-27 20:20:00,46.0,13.9,29.77,SSW,201,0.0,0.0,27,0.00,,SKC,0.04,VWS V14.01,2013-09-28 03:20:00,
2013-09-27 20:25:00,46.2,14.1,29.77,SSW,201,0.0,0.0,27,0.00,,SKC,0.04,VWS V14.01,2013-09-28 03:25:00,
2013-09-27 20:30:00,46.2,14.1,29.77,SSW,201,0.0,0.0,27,0.00,,SKC,0.04,VWS V14.01,2013-09-28 03:30:00,
2013-09-27 20:35:00,46.0,12.2,29.77,SSW,201,0.0,0.0,25,0.00,,SKC,0.04,VWS V14.01,2013-09-28 03:35:00,
2013-09-27 20:40:00,46.2,12.4,29.77,SSW,201,0.0,0.0,25,0.00,,SKC,0.04,VWS V14.01,2013-09-28 03:40:00,
2013-09-27 20:45:00,46.0,12.2,29.77,SSW,201,0.0,0.0,25,0.00,,SKC,0.04,VWS V14.01,2013-09-28 03:45:00,
2013-09-27 20:50:00,45.9,12.0,29.77,SSW,201,0.0,0.0,25,0.00,,SKC,0.04,VWS V14.01,2013-09-28 03:50:00,
2013-09-27 20:55:00,45.9,12.0,29.77,SSW,201,0.0,0.0,25,0.00,,SKC,0.04,VWS V14.01,2013-09-28 03:55:00,
2013-09-27 21:00:00,45.5,11.7,29.77,SSW,201,0.0,0.0,25,0.00,,SKC,0.04,VWS V14.01,2013-09-28 04:00:00,
2013-09-27 21:01:00,45.5,11.7,29.77,SSW,201,0.0,0.0,25,0.00,,SKC,0.04,VWS V14.01,2013-09-28 04:01:00,
2013-09-27 21:06:00,45.3,11.6,29.77,SSW,201,0.0,0.0,25,0.00,,SKC,0.04,VWS V14.01,2013-09-28 04:06:00,
2013-09-27 21:11:00,45.7,11.9,29.77,SSW,201,0.0,0.0,25,0.00,,SKC,0.04,VWS V14.01,2013-09-28 04:11:00,
2013-09-27 21:16:00,45.9,12.0,29.77,SSW,201,0.0,0.0,25,0.00,,SKC,0.04,VWS V14.01,2013-09-28 04:16:00,
2013-09-27 21:21:00,45.3,11.6,29.77,SSW,201,0.0,0.0,25,0.00,,SKC,0.04,VWS V14.01,2013-09-28 04:21:00,
2013-09-27 21:26:00,45.0,11.3,29.80,SE,127,0.0,0.0,25,0.00,,SKC,0.04,VWS V14.01,2013-09-28 04:26:00,
2013-09-27 21:31:00,44.8,11.1,29.80,SE,128,0.0,0.0,25,0.00,,SKC,0.04,VWS V14.01,2013-09-28 04:31:00,
2013-09-27 21:36:00,45.9,12.0,29.80,SE,131,0.0,0.0,25,0.00,,SKC,0.04,VWS V14.01,2013-09-28 04:36:00,
2013-09-27 21:41:00,45.7,11.9,29.77,ESE,121,0.0,0.0,25,0.00,,SKC,0.04,VWS V14.01,2013-09-28 04:41:00,
2013-09-27 21:46:00,45.9,12.0,29.77,ESE,121,0.0,0.0,25,0.00,,SKC,0.04,VWS V14.01,2013-09-28 04:46:00,
2013-09-27 21:51:00,45.5,11.7,29.77,ESE,121,0.0,0.0,25,0.00,,SKC,0.04,VWS V14.01,2013-09-28 04:51:00,
2013-09-27 21:56:00,44.8,11.1,29.77,ESE,121,0.0,0.0,25,0.00,,SKC,0.04,VWS V14.01,2013-09-28 04:56:00,
2013-09-27 22:01:00,43.9,10.4,29.77,ESE,121,0.0,0.0,25,0.00,,SKC,0.04,VWS V14.01,2013-09-28 05:01:00,
2013-09-27 22:06:00,43.7,12.8,29.77,ESE,121,0.0,0.0,28,0.00,,SKC,0.04,VWS V14.01,2013-09-28 05:06:00,
2013-09-27 22:11:00,43.3,12.4,29.80,ESE,121,0.0,0.0,28,0.00,,SKC,0.04,VWS V14.01,2013-09-28 05:11:00,
2013-09-27 22:16:00,43.2,12.3,29.80,ESE,121,0.0,0.0,28,0.00,,SKC,0.04,VWS V14.01,2013-09-28 05:16:00,
2013-09-27 22:21:00,42.6,11.8,29.80,ESE,121,0.0,0.0,28,0.00,,SKC,0.04,VWS V14.01,2013-09-28 05:21:00,
2013-09-27 22:26:00,42.8,12.0,29.77,ESE,121,0.0,0.0,28,0.00,,SKC,0.04,VWS V14.01,2013-09-28 05:26:00,
2013-09-27 22:31:00,42.6,11.8,29.77,ESE,121,0.0,0.0,28,0.00,,SKC,0.04,VWS V14.01,2013-09-28 05:31:00,
2013-09-27 22:36:00,42.6,11.8,29.77,ESE,122,0.0,0.0,28,0.00,,SKC,0.04,VWS V14.01,2013-09-28 05:36:00,
2013-09-27 22:41:00,43.5,10.0,29.77,ESE,122,0.0,0.0,25,0.00,,SKC,0.04,VWS V14.01,2013-09-28 05:41:00,
2013-09-27 22:46:00,44.1,10.5,29.77,ESE,122,0.0,0.0,25,0.00,,SKC,0.04,VWS V14.01,2013-09-28 05:46:00,
2013-09-27 22:51:00,44.1,10.5,29.77,ESE,122,0.0,0.0,25,0.00,,SKC,0.04,VWS V14.01,2013-09-28 05:51:00,
2013-09-27 22:56:00,43.5,10.0,29.77,ESE,122,0.0,0.0,25,0.00,,SKC,0.04,VWS V14.01,2013-09-28 05:56:00,
2013-09-27 23:01:00,43.7,10.2,29.77,ESE,122,0.0,0.0,25,0.00,,SKC,0.04,VWS V14.01,2013-09-28 06:01:00,
2013-09-27 23:06:00,43.3,9.9,29.77,ESE,122,3.6,3.6,25,0.00,,SKC,0.04,VWS V14.01,2013-09-28 06:06:00,
2013-09-27 23:11:00,43.7,10.2,29.77,ESE,122,4.0,5.4,25,0.00,,SKC,0.04,VWS V14.01,2013-09-28 06:11:00,
2013-09-27 23:16:00,44.1,10.5,29.77,SE,127,3.1,4.9,25,0.00,,SKC,0.04,VWS V14.01,2013-09-28 06:16:00,
2013-09-27 23:21:00,44.1,10.5,29.77,ESE,121,2.7,2.7,25,0.00,,SKC,0.04,VWS V14.01,2013-09-28 06:21:00,
2013-09-27 23:26:00,44.1,10.5,29.77,SE,124,4.0,4.0,25,0.00,,SKC,0.04,VWS V14.01,2013-09-28 06:26:00,
2013-09-27 23:31:00,43.9,10.4,29.77,SE,124,3.1,3.6,25,0.00,,SKC,0.04,VWS V14.01,2013-09-28 06:31:00,
2013-09-27 23:36:00,43.7,10.2,29.77,SE,142,3.6,3.6,25,0.00,,SKC,0.04,VWS V14.01,2013-09-28 06:36:00,
2013-09-27 23:41:00,44.4,10.8,29.77,SE,125,3.6,3.6,25,0.00,,SKC,0.04,VWS V14.01,2013-09-28 06:41:00,
2013-09-27 23:46:00,44.6,11.0,29.77,SE,137,3.1,4.0,25,0.00,,SKC,0.04,VWS V14.01,2013-09-28 06:46:00,
2013-09-27 23:51:00,44.4,10.8,29.77,ESE,115,3.6,3.6,25,0.00,,SKC,0.04,VWS V14.01,2013-09-28 06:51:00,
2013-09-27 23:56:00,44.1,10.5,29.77,ESE,118,3.1,3.1,25,0.00,,SKC,0.04,VWS V14.01,2013-09-28 06:56:00,